Retour au catalogue

METEOSAT 1

ActifMétéoGEO
NORAD 10489·PAYLOAD·🇪🇺 EU

Lancé Nov 23, 1977 depuis Cape Canaveral Space Force Station

Loading…

TLE

FraisSource: Space-Track

Époque: Sep 14, 2026, 14:03 UTC

1 10489U 77108A   26257.58584772  .00000062  00000-0  00000-0 0  9991
2 10489   4.8570 280.1742 0007444  99.1725 239.3802  1.00375689138103

Suivez METEOSAT 1 en temps réel avec AllMySat

Download on the App Store